Back to catalog

GONETS M 05

AliveCommunicationsPO
NORAD 39249·PAYLOAD·🇷🇺 Russia

Launched Sep 11, 2013 from Plesetsk Cosmodrome

Loading…

Next Passes (next 24 hours)

TLE

FreshSource: Space-Track

Epoch: Sep 14, 2026, 13:07 UTC

1 39249U 13048A   26257.54673971  .00000073  00000-0  45474-3 0  9994
2 39249  82.4785 287.6786 0016875  22.8143 337.3683 12.42894610589983

Track GONETS M 05 in real time with AllMySat

Download on the App Store